FENGYUN 1C DEB

Satellite information

Favourite Embed

Satellite Type and Status

DEBRISIN ORBIT

Key statistics

Satellite FENGYUN 1C DEB at a glance.

Uptime

9555

Days in orbit

Revolutions

≈ 14.2

Per day

Orbit

SSO

Sun Synchronous Orbit

Inclination

98.7

Latest

Satellite identification and parameters

Extended collection of information and parameters for FENGYUN 1C DEB.

Object identification

Identified? True

Debris? True

Object name: FENGYUN 1C DEB

International designator: 1999-025HH

Object number (NORAD): 29911

Object ID (CCSDS): 29911

Country: PEOPLES REPUBLIC OF CHINA (PRC)

Current information (Y/N): Y

RCS size: SMALL

Orbital parameters

Period: 101.528 minutes

Inclination: 98.7305 deg

SMA: 7209.169 km

Apoapsis: 849.239 km

Periapsis: 812.828 km

RAAN: 232.4048 deg

Eccentricy: 0.0025253

Argument of periapsis: 249.4071 deg

Mean anomaly: 227.4423 deg

Mean motion: 14.18322458 rev/day

Mean motion (dot): 0.0000111 rev/day2

B* drag term: 0.0005581 1/REarth

Two-line elements (TLE)

Creation date: July 5, 2025, 10:56 p.m.

Reference frame: TEME

Reference center: EARTH

Epoch: July 5, 2025, 3:47 p.m. UTC

TLE line 0: 0 FENGYUN 1C DEB

TLE line 1: 1 29911U 99025HH 25186.65807699 .00001110 00000-0 55810-3 0 9994

TLE line 2: 2 29911 98.7305 232.4048 0025253 249.4071 227.4423 14.18322458951718

Live tracking on map

Real-time ground track for satellite FENGYUN 1C DEB.

In-orbit conjunctions

A list of the most updated potential collisions computed for object FENGYUN 1C DEB.

Target Orbit TCA Probability of collision Miss distance Type
METEOR 1-19 LEO 2025-03-27 23:57:40 0.0002058615 982.0 (m) PAYLOAD

Associated space launch

Chinese polar orbiting meteorological satellite

FENGYUN 1C DEB was lifted into orbit during the mission ‘Long March 4B | Feng Yun 1C’, on board a Long March 4B space rocket.

The launch took place on May 10, 1999, 1:33 a.m. from Launch Complex 7.

For more information about the launch, click the button.

Launch to space Long March 4B | Feng Yun 1C
Long March 4B | Feng Yun 1C

Agency: N/A

Status: Launch Successful

Launch date: May 10, 1999, 1:33 a.m. UTC

Rocket: Long March 4B

Launch pad: Launch Complex 7

Location: Taiyuan Satellite Launch Center, People's Republic of China

...

Latest news about this satellite

There are no fresh news available about this satellite. Check back as we update our databases every day.


Newsletter sign-up

Weekly statistics, charts and insights to help you stay on top of the space industry.